Language: 


Des rapports , des résumés tant et plus, au choix de chacun....


Données Historiques de Météogheer
Journalier Rapport pour Février 1, 2018 Unitée:  Métrique    Impériale   Les deux
Suivant Jour »
Journalier Hebdomadaire Mensuel Annuel Sur mesure
  Max: Min: Moyenne:
Température: 8.5 °C 0.9 °C 4 °C
Point de rosée: 6.0 °C 0.0 °C 2.5 °C
Humidité: 98% 61% 89%
Vent: 32.3km/h 0.0km/h 8.7km/h
Rafales: 37.0km/h - -
Vent- - WSW
Pression: 1003.9 hPa 997.9 hPa -
Pluie: 3.6 mm    
Historical Graphs
 
 
Données tabulaires pour Février 1, 2018
Heure Température Point de rosée Pression Vent Vent Rafales Humidité Pluie Taux (Horaire) Conditions
00:03 2.2 °C 1.0 °C 1001.9 hPa West 6.1 km/h 8.7 km/h 92% 0.0 mm
00:08 2.2 °C 1.0 °C 1001.9 hPa West 7.9 km/h 9.7 km/h 92% 0.0 mm
00:13 2.2 °C 1.0 °C 1001.9 hPa WSW 3.2 km/h 9.7 km/h 91% 0.0 mm
00:18 2.1 °C 1.0 °C 1001.9 hPa Calm   10.5 km/h 91% 0.0 mm
00:23 2.1 °C 1.0 °C 1001.9 hPa Calm   10.5 km/h 91% 0.0 mm
00:28 2.0 °C 1.0 °C 1001.9 hPa Calm     91% 0.0 mm
00:33 1.8 °C 0.0 °C 1000.9 hPa Calm     90% 0.0 mm
00:38 1.6 °C 0.0 °C 1000.9 hPa Calm     90% 0.0 mm
00:43 1.3 °C 0.0 °C 1000.9 hPa Calm     89% 0.0 mm
00:48 1.3 °C 0.0 °C 1000.9 hPa Calm     90% 0.0 mm
00:53 1.3 °C 0.0 °C 1000.9 hPa Calm   6.9 km/h 90% 0.0 mm
00:58 1.3 °C 0.0 °C 1000.9 hPa WSW 9.0 km/h 9.0 km/h 91% 0.0 mm
01:03 1.4 °C 0.0 °C 1000.9 hPa WSW 8.7 km/h 9.3 km/h 92% 0.0 mm
01:08 1.4 °C 0.0 °C 1000.9 hPa WSW 8.7 km/h 9.7 km/h 92% 0.0 mm
01:13 1.4 °C 1.0 °C 1000.9 hPa Calm   9.7 km/h 93% 0.0 mm
01:18 1.4 °C 1.0 °C 1000.9 hPa WSW 5.0 km/h 9.3 km/h 93% 0.0 mm
01:23 1.5 °C 1.0 °C 1000.9 hPa Calm   5.0 km/h 93% 0.0 mm
01:28 1.4 °C 1.0 °C 1000.9 hPa Calm   5.0 km/h 93% 0.0 mm
01:33 1.4 °C 1.0 °C 1000.9 hPa Calm   1.4 km/h 93% 0.0 mm
01:38 1.3 °C 1.0 °C 1000.9 hPa Calm   5.8 km/h 93% 0.0 mm
01:43 1.2 °C 1.0 °C 1000.9 hPa Calm   5.8 km/h 93% 0.0 mm
01:48 1.3 °C 1.0 °C 1000.9 hPa Calm   5.8 km/h 93% 0.0 mm
01:53 1.4 °C 1.0 °C 1000.9 hPa Calm   7.2 km/h 94% 0.0 mm
01:59 1.5 °C 1.0 °C 1000.9 hPa SSW 8.7 km/h 8.7 km/h 95% 0.0 mm
02:04 1.6 °C 1.0 °C 1000.9 hPa SSW 1.8 km/h 8.7 km/h 95% 0.0 mm
02:09 1.6 °C 1.0 °C 1000.9 hPa Calm   8.7 km/h 95% 0.0 mm
02:14 1.6 °C 1.0 °C 1000.9 hPa Calm   4.7 km/h 95% 0.0 mm
02:19 1.5 °C 1.0 °C 1000.9 hPa Calm   1.4 km/h 95% 0.0 mm
02:24 1.4 °C 1.0 °C 1000.9 hPa Calm   3.2 km/h 94% 0.0 mm
02:29 1.3 °C 1.0 °C 999.9 hPa West 4.0 km/h 4.3 km/h 94% 0.0 mm
02:34 1.1 °C 0.0 °C 999.9 hPa Calm   4.3 km/h 93% 0.0 mm
02:39 0.9 °C 0.0 °C 999.9 hPa Calm   7.6 km/h 93% 0.0 mm
02:44 1.1 °C 0.0 °C 999.9 hPa Calm   7.6 km/h 94% 0.0 mm
02:49 1.3 °C 1.0 °C 999.9 hPa WSW 7.2 km/h 7.2 km/h 95% 0.0 mm
02:54 1.4 °C 1.0 °C 999.9 hPa Calm   7.2 km/h 96% 0.0 mm
02:59 1.4 °C 1.0 °C 999.9 hPa Calm   7.2 km/h 96% 0.0 mm
03:04 1.3 °C 1.0 °C 999.9 hPa SSW 4.7 km/h 5.5 km/h 96% 0.0 mm
03:09 1.3 °C 1.0 °C 999.9 hPa Calm   7.6 km/h 96% 0.0 mm
03:14 1.5 °C 1.0 °C 999.9 hPa Calm   7.6 km/h 96% 0.0 mm
03:19 1.6 °C 1.0 °C 999.9 hPa Calm   6.1 km/h 97% 0.0 mm
03:24 1.6 °C 1.0 °C 999.9 hPa SSW 2.6 km/h 6.1 km/h 97% 0.0 mm
03:29 1.6 °C 1.0 °C 998.9 hPa Calm   6.1 km/h 97% 0.0 mm
03:34 1.6 °C 1.0 °C 998.9 hPa SSW 5.5 km/h 5.5 km/h 96% 0.0 mm
03:39 1.6 °C 1.0 °C 998.9 hPa Calm   5.8 km/h 96% 0.0 mm
03:44 1.4 °C 1.0 °C 998.9 hPa SSW 5.8 km/h 7.9 km/h 96% 0.0 mm
03:49 1.4 °C 1.0 °C 998.9 hPa South 4.7 km/h 7.9 km/h 96% 0.0 mm
03:54 1.3 °C 1.0 °C 998.9 hPa South 4.0 km/h 7.9 km/h 96% 0.0 mm
03:59 1.3 °C 1.0 °C 998.9 hPa Calm   6.1 km/h 96% 0.0 mm
04:04 1.2 °C 1.0 °C 998.9 hPa SSW 4.7 km/h 6.1 km/h 96% 0.0 mm
04:09 1.1 °C 1.0 °C 998.9 hPa Calm   5.0 km/h 96% 0.0 mm
04:14 1.2 °C 1.0 °C 998.9 hPa SW 5.5 km/h 9.3 km/h 96% 0.0 mm
04:19 1.4 °C 1.0 °C 998.9 hPa SSW 9.7 km/h 11.9 km/h 97% 0.0 mm
04:24 1.6 °C 1.0 °C 998.9 hPa SSW 1.4 km/h 11.9 km/h 97% 0.0 mm
04:29 1.7 °C 2.0 °C 998.9 hPa SSW 8.7 km/h 11.6 km/h 98% 0.0 mm
04:34 1.9 °C 2.0 °C 998.9 hPa SSW 10.1 km/h 12.2 km/h 98% 0.0 mm
04:39 1.9 °C 2.0 °C 998.9 hPa SW 8.7 km/h 12.2 km/h 98% 0.0 mm
04:44 2.0 °C 2.0 °C 997.9 hPa Calm   12.6 km/h 98% 0.0 mm
04:49 2.1 °C 2.0 °C 997.9 hPa South 9.7 km/h 16.6 km/h 98% 0.0 mm
04:54 2.2 °C 2.0 °C 997.9 hPa South 9.7 km/h 16.6 km/h 98% 0.0 mm
04:59 2.2 °C 2.0 °C 998.9 hPa SSW 9.7 km/h 13.7 km/h 98% 0.0 mm
05:04 2.2 °C 2.0 °C 998.9 hPa SSW 12.2 km/h 14.0 km/h 97% 0.0 mm
05:09 2.2 °C 2.0 °C 998.9 hPa South 8.7 km/h 14.0 km/h 97% 0.0 mm
05:14 2.2 °C 2.0 °C 998.9 hPa SW 10.1 km/h 14.0 km/h 97% 0.0 mm
05:19 2.2 °C 2.0 °C 998.9 hPa SW 20.6 km/h 20.6 km/h 97% 0.0 mm
05:25 2.3 °C 2.0 °C 998.9 hPa SW 11.9 km/h 20.6 km/h 97% 0.0 mm
05:30 2.3 °C 2.0 °C 998.9 hPa SSW 13.0 km/h 17.7 km/h 97% 0.0 mm
05:35 2.4 °C 2.0 °C 998.9 hPa WSW 10.1 km/h 16.6 km/h 97% 0.0 mm
05:40 2.4 °C 2.0 °C 998.9 hPa SW 9.7 km/h 20.9 km/h 97% 0.0 mm
05:45 2.6 °C 3.0 °C 997.9 hPa WSW 10.5 km/h 20.9 km/h 97% 0.0 mm
05:50 2.7 °C 3.0 °C 997.9 hPa SW 17.7 km/h 22.4 km/h 98% 0.0 mm
05:55 2.8 °C 3.0 °C 997.9 hPa SSW 19.1 km/h 24.8 km/h 98% 0.0 mm
06:00 2.9 °C 3.0 °C 998.9 hPa WSW 32.3 km/h 36.7 km/h 98% 0.0 mm
06:05 2.8 °C 3.0 °C 998.9 hPa WSW 30.2 km/h 37.0 km/h 98% 0.5 mm
06:10 2.7 °C 3.0 °C 998.9 hPa SW 21.2 km/h 37.0 km/h 98% 0.8 mm
06:15 2.7 °C 3.0 °C 997.9 hPa WSW 16.6 km/h 28.0 km/h 98% 0.8 mm
06:20 2.7 °C 3.0 °C 997.9 hPa WSW 17.2 km/h 21.2 km/h 98% 0.8 mm
06:25 2.8 °C 3.0 °C 997.9 hPa WSW 13.0 km/h 21.2 km/h 98% 0.8 mm
06:31 2.7 °C 3.0 °C 997.9 hPa WSW 13.0 km/h 24.5 km/h 98% 1.3 mm
06:36 2.7 °C 3.0 °C 997.9 hPa WSW 14.8 km/h 24.5 km/h 98% 1.3 mm
06:41 2.8 °C 3.0 °C 997.9 hPa WSW 19.8 km/h 24.8 km/h 98% 1.3 mm
06:46 2.7 °C 3.0 °C 997.9 hPa WSW 24.5 km/h 24.8 km/h 98% 1.3 mm
06:51 2.7 °C 3.0 °C 997.9 hPa WSW 16.9 km/h 25.6 km/h 98% 1.3 mm
06:56 2.6 °C 3.0 °C 997.9 hPa SW 16.6 km/h 25.6 km/h 98% 1.5 mm
07:01 2.7 °C 3.0 °C 997.9 hPa SW 13.0 km/h 19.5 km/h 98% 1.3 mm
07:06 2.7 °C 3.0 °C 997.9 hPa WSW 13.0 km/h 20.9 km/h 98% 0.8 mm
07:11 2.7 °C 3.0 °C 997.9 hPa SSW 9.3 km/h 20.9 km/h 98% 0.5 mm
07:16 2.7 °C 3.0 °C 997.9 hPa SW 16.3 km/h 16.3 km/h 98% 0.5 mm
07:21 2.7 °C 3.0 °C 997.9 hPa WSW 15.1 km/h 16.6 km/h 98% 0.5 mm
07:26 2.8 °C 3.0 °C 997.9 hPa SW 10.1 km/h 16.6 km/h 98% 0.5 mm
07:31 2.8 °C 3.0 °C 997.9 hPa SW 9.7 km/h 14.0 km/h 98% 0.3 mm
07:36 2.9 °C 3.0 °C 997.9 hPa SSW 10.5 km/h 16.9 km/h 98% 0.3 mm
07:41 2.9 °C 3.0 °C 997.9 hPa SW 9.3 km/h 16.9 km/h 98% 0.3 mm
07:46 2.9 °C 3.0 °C 998.9 hPa WSW 10.1 km/h 13.0 km/h 98% 0.3 mm
07:51 2.9 °C 3.0 °C 998.9 hPa SW 11.9 km/h 13.0 km/h 98% 0.3 mm
07:56 2.9 °C 3.0 °C 998.9 hPa SSW 9.7 km/h 12.6 km/h 98% 0.0 mm
08:01 2.9 °C 3.0 °C 998.9 hPa WSW 10.8 km/h 16.6 km/h 98% 0.0 mm
08:06 2.9 °C 3.0 °C 998.9 hPa WSW 14.0 km/h 21.2 km/h 98% 0.0 mm
08:11 3.0 °C 3.0 °C 998.9 hPa SW 22.7 km/h 28.0 km/h 98% 0.0 mm
08:16 3.0 °C 3.0 °C 998.9 hPa SW 22.4 km/h 28.0 km/h 98% 0.0 mm
08:21 3.0 °C 3.0 °C 998.9 hPa WSW 20.9 km/h 23.0 km/h 98% 0.0 mm
08:27 3.0 °C 3.0 °C 998.9 hPa SW 18.0 km/h 24.5 km/h 98% 0.0 mm
08:32 3.0 °C 3.0 °C 998.9 hPa WSW 12.2 km/h 24.5 km/h 98% 0.0 mm
08:37 3.0 °C 3.0 °C 998.9 hPa WSW 17.7 km/h 21.6 km/h 98% 0.3 mm
08:42 3.0 °C 3.0 °C 998.9 hPa WSW 16.6 km/h 21.6 km/h 98% 0.3 mm
08:47 3.0 °C 3.0 °C 998.9 hPa WSW 11.9 km/h 18.0 km/h 98% 0.3 mm
08:52 3.0 °C 3.0 °C 998.9 hPa WSW 13.7 km/h 21.2 km/h 98% 0.3 mm
08:57 3.0 °C 3.0 °C 998.9 hPa WSW 12.2 km/h 21.2 km/h 98% 0.3 mm
09:02 3.0 °C 3.0 °C 998.9 hPa WSW 15.8 km/h 20.9 km/h 98% 0.3 mm
09:07 3.0 °C 3.0 °C 998.9 hPa WSW 14.0 km/h 17.7 km/h 98% 0.3 mm
09:12 3.0 °C 3.0 °C 998.9 hPa WSW 13.7 km/h 17.2 km/h 98% 0.3 mm
09:17 3.0 °C 3.0 °C 997.9 hPa WSW 12.2 km/h 21.9 km/h 98% 0.3 mm
09:22 3.1 °C 3.0 °C 997.9 hPa WSW 14.0 km/h 21.9 km/h 98% 0.3 mm
09:27 3.1 °C 3.0 °C 997.9 hPa WSW 12.6 km/h 17.7 km/h 98% 0.3 mm
09:32 3.1 °C 3.0 °C 998.9 hPa WSW 17.7 km/h 17.7 km/h 98% 0.3 mm
09:38 3.1 °C 3.0 °C 998.9 hPa WSW 12.2 km/h 17.7 km/h 98% 0.0 mm
09:43 3.2 °C 3.0 °C 998.9 hPa WSW 19.1 km/h 19.1 km/h 98% 0.0 mm
09:48 3.4 °C 3.0 °C 998.9 hPa WSW 11.9 km/h 19.1 km/h 98% 0.0 mm
09:53 3.7 °C 4.0 °C 998.9 hPa WSW 15.8 km/h 15.8 km/h 98% 0.0 mm
09:58 3.6 °C 4.0 °C 998.9 hPa SW 13.0 km/h 16.6 km/h 98% 0.0 mm
10:03 3.5 °C 4.0 °C 998.9 hPa SW 10.1 km/h 16.6 km/h 98% 0.3 mm
10:08 3.6 °C 4.0 °C 998.9 hPa WSW 16.9 km/h 27.4 km/h 98% 0.3 mm
10:13 3.7 °C 4.0 °C 998.9 hPa West 14.0 km/h 27.4 km/h 98% 0.3 mm
10:18 3.7 °C 4.0 °C 999.9 hPa WSW 15.8 km/h 20.9 km/h 98% 0.3 mm
10:23 3.8 °C 4.0 °C 999.9 hPa WSW 8.7 km/h 21.2 km/h 98% 0.3 mm
10:29 4.0 °C 4.0 °C 999.9 hPa West 16.3 km/h 20.9 km/h 98% 0.5 mm
10:34 4.1 °C 4.0 °C 999.9 hPa West 9.3 km/h 20.9 km/h 98% 0.5 mm
10:39 4.2 °C 4.0 °C 999.9 hPa West 11.9 km/h 17.7 km/h 98% 0.5 mm
10:44 4.3 °C 4.0 °C 1000.9 hPa West 9.0 km/h 23.8 km/h 98% 0.5 mm
10:49 4.4 °C 4.0 °C 1000.9 hPa SSW 4.7 km/h 23.8 km/h 98% 0.5 mm
10:54 4.4 °C 4.0 °C 1000.9 hPa West 9.3 km/h 17.2 km/h 98% 0.5 mm
10:59 4.5 °C 5.0 °C 1000.9 hPa West 9.7 km/h 17.2 km/h 98% 0.5 mm
11:04 4.5 °C 5.0 °C 1000.9 hPa WNW 7.6 km/h 17.2 km/h 98% 0.3 mm
11:09 4.8 °C 5.0 °C 1000.9 hPa West 5.8 km/h 16.9 km/h 98% 0.3 mm
11:14 5.0 °C 5.0 °C 1001.9 hPa West 10.1 km/h 16.9 km/h 98% 0.3 mm
11:19 5.2 °C 5.0 °C 1001.9 hPa WSW 10.5 km/h 19.5 km/h 98% 0.3 mm
11:24 5.3 °C 6.0 °C 1001.9 hPa WNW 9.7 km/h 19.5 km/h 98% 0.3 mm
11:29 5.1 °C 5.0 °C 1000.9 hPa NNW 3.2 km/h 19.5 km/h 98% 0.0 mm
11:34 5.0 °C 5.0 °C 1000.9 hPa WSW 2.6 km/h 10.5 km/h 98% 0.0 mm
11:39 5.2 °C 5.0 °C 1000.9 hPa West 5.8 km/h 13.7 km/h 98% 0.0 mm
11:44 5.6 °C 6.0 °C 1000.9 hPa West 2.1 km/h 13.7 km/h 98% 0.0 mm
11:49 6.0 °C 6.0 °C 1000.9 hPa West 15.8 km/h 17.7 km/h 98% 0.0 mm
11:54 6.2 °C 6.0 °C 1000.9 hPa WNW 13.7 km/h 17.7 km/h 97% 0.0 mm
11:59 6.0 °C 6.0 °C 1000.9 hPa NNW 13.0 km/h 16.9 km/h 95% 0.0 mm
12:04 5.9 °C 5.0 °C 1000.9 hPa West 12.2 km/h 16.3 km/h 92% 0.0 mm
12:09 6.2 °C 5.0 °C 1000.9 hPa WNW 9.7 km/h 24.8 km/h 88% 0.0 mm
12:14 6.6 °C 5.0 °C 1000.9 hPa WNW 6.9 km/h 24.8 km/h 87% 0.0 mm
12:19 6.9 °C 5.0 °C 1000.9 hPa West 8.7 km/h 16.3 km/h 87% 0.0 mm
12:25 6.5 °C 5.0 °C 1000.9 hPa WNW 7.9 km/h 16.6 km/h 85% 0.0 mm
12:30 6.5 °C 5.0 °C 1000.9 hPa WNW 1.8 km/h 15.8 km/h 85% 0.0 mm
12:35 6.8 °C 5.0 °C 1000.9 hPa WSW 9.0 km/h 14.0 km/h 86% 0.0 mm
12:40 7.0 °C 5.0 °C 1000.9 hPa West 15.1 km/h 16.6 km/h 84% 0.0 mm
12:45 6.7 °C 4.0 °C 1000.9 hPa West 14.0 km/h 23.0 km/h 81% 0.0 mm
12:50 6.4 °C 3.0 °C 1000.9 hPa NW 10.1 km/h 23.0 km/h 79% 0.0 mm
12:55 6.2 °C 3.0 °C 1000.9 hPa West 15.4 km/h 21.6 km/h 80% 0.0 mm
13:00 6.0 °C 3.0 °C 1000.9 hPa WNW 4.3 km/h 17.2 km/h 79% 0.0 mm
13:05 6.0 °C 3.0 °C 1000.9 hPa NNW 5.8 km/h 17.2 km/h 81% 0.0 mm
13:10 6.3 °C 4.0 °C 1000.9 hPa NW 9.7 km/h 13.7 km/h 83% 0.0 mm
13:15 6.6 °C 4.0 °C 1000.9 hPa NW 7.9 km/h 14.0 km/h 82% 0.0 mm
13:21 6.4 °C 3.0 °C 1000.9 hPa West 10.5 km/h 17.7 km/h 80% 0.0 mm
13:26 6.7 °C 4.0 °C 1000.9 hPa West 9.7 km/h 19.1 km/h 81% 0.0 mm
13:31 7.2 °C 4.0 °C 999.9 hPa WSW 5.8 km/h 19.1 km/h 80% 0.0 mm
13:36 7.4 °C 4.0 °C 999.9 hPa West 6.1 km/h 16.3 km/h 77% 0.0 mm
13:41 7.6 °C 4.0 °C 999.9 hPa North 19.1 km/h 19.8 km/h 77% 0.0 mm
13:46 7.7 °C 3.0 °C 1000.9 hPa West 13.7 km/h 20.1 km/h 74% 0.0 mm
13:51 7.7 °C 3.0 °C 1000.9 hPa NW 10.1 km/h 20.1 km/h 74% 0.0 mm
13:56 8.0 °C 4.0 °C 1000.9 hPa NW 5.0 km/h 19.8 km/h 73% 0.0 mm
14:01 8.2 °C 4.0 °C 1000.9 hPa West 20.1 km/h 21.2 km/h 74% 0.0 mm
14:06 7.9 °C 3.0 °C 1000.9 hPa WNW 16.9 km/h 21.2 km/h 71% 0.0 mm
14:11 7.9 °C 3.0 °C 1000.9 hPa NW 9.3 km/h 19.8 km/h 72% 0.0 mm
14:16 8.0 °C 3.0 °C 999.9 hPa NNW 9.3 km/h 17.2 km/h 71% 0.0 mm
14:21 7.9 °C 3.0 °C 999.9 hPa SW 11.9 km/h 16.6 km/h 69% 0.0 mm
14:26 8.1 °C 3.0 °C 999.9 hPa SSW 7.9 km/h 17.7 km/h 71% 0.0 mm
14:31 8.2 °C 4.0 °C 1000.9 hPa West 10.5 km/h 17.7 km/h 72% 0.0 mm
14:36 8.0 °C 3.0 °C 1000.9 hPa WNW 9.7 km/h 18.0 km/h 70% 0.0 mm
14:41 7.8 °C 2.0 °C 1000.9 hPa West 12.2 km/h 18.0 km/h 69% 0.0 mm
14:46 7.9 °C 3.0 °C 1000.9 hPa WSW 13.7 km/h 16.6 km/h 69% 0.0 mm
14:51 8.3 °C 3.0 °C 1000.9 hPa NW 9.3 km/h 20.9 km/h 68% 0.0 mm
14:57 8.3 °C 2.0 °C 1000.9 hPa WSW 13.0 km/h 28.5 km/h 63% 0.0 mm
15:02 8.1 °C 1.0 °C 999.9 hPa WSW 10.8 km/h 28.5 km/h 62% 0.0 mm
15:07 8.1 °C 2.0 °C 999.9 hPa West 13.0 km/h 20.9 km/h 63% 0.0 mm
15:12 8.0 °C 1.0 °C 999.9 hPa WSW 5.8 km/h 20.9 km/h 62% 0.0 mm
15:17 8.4 °C 2.0 °C 999.9 hPa West 13.7 km/h 17.2 km/h 64% 0.0 mm
15:22 8.4 °C 2.0 °C 999.9 hPa WSW 19.8 km/h 24.8 km/h 62% 0.0 mm
15:27 8.3 °C 1.0 °C 999.9 hPa WNW 13.7 km/h 24.8 km/h 61% 0.0 mm
15:32 8.3 °C 2.0 °C 1000.9 hPa West 16.6 km/h 21.6 km/h 63% 0.0 mm
15:37 8.1 °C 1.0 °C 1000.9 hPa NNW 6.1 km/h 21.2 km/h 61% 0.0 mm
15:42 8.1 °C 1.0 °C 1000.9 hPa West 9.0 km/h 21.2 km/h 62% 0.0 mm
15:47 8.1 °C 1.0 °C 1000.9 hPa WNW 10.5 km/h 20.9 km/h 62% 0.0 mm
15:52 8.1 °C 2.0 °C 1000.9 hPa West 9.3 km/h 20.9 km/h 64% 0.0 mm
15:57 8.1 °C 2.0 °C 1000.9 hPa West 6.4 km/h 15.1 km/h 63% 0.0 mm
16:02 8.3 °C 2.0 °C 1000.9 hPa West 7.9 km/h 14.0 km/h 63% 0.0 mm
16:07 8.5 °C 3.0 °C 1000.9 hPa WSW 5.8 km/h 13.0 km/h 64% 0.0 mm
16:12 8.4 °C 2.0 °C 1000.9 hPa West 20.6 km/h 23.0 km/h 63% 0.0 mm
16:17 8.0 °C 1.0 °C 1000.9 hPa West 10.5 km/h 23.0 km/h 62% 0.0 mm
16:22 7.5 °C 1.0 °C 1000.9 hPa WNW 11.1 km/h 20.9 km/h 64% 0.0 mm
16:27 6.8 °C 1.0 °C 1000.9 hPa WNW 6.1 km/h 16.9 km/h 66% 0.0 mm
16:32 6.4 °C 1.0 °C 1001.9 hPa WNW 7.9 km/h 16.9 km/h 70% 0.0 mm
16:37 6.1 °C 1.0 °C 1001.9 hPa WSW 9.3 km/h 18.3 km/h 71% 0.0 mm
16:42 5.9 °C 2.0 °C 1001.9 hPa WSW 14.0 km/h 18.3 km/h 73% 0.0 mm
16:47 5.7 °C 2.0 °C 1001.9 hPa WNW 3.2 km/h 17.7 km/h 74% 0.0 mm
16:52 5.6 °C 2.0 °C 1001.9 hPa West 13.0 km/h 15.8 km/h 74% 0.0 mm
16:57 5.6 °C 2.0 °C 1001.9 hPa West 10.1 km/h 15.8 km/h 74% 0.0 mm
17:03 5.6 °C 2.0 °C 1001.9 hPa West 5.5 km/h 15.8 km/h 74% 0.0 mm
17:08 5.4 °C 2.0 °C 1001.9 hPa West 5.5 km/h 9.3 km/h 75% 0.0 mm
17:13 5.3 °C 2.0 °C 1001.9 hPa WNW 6.1 km/h 9.0 km/h 75% 0.0 mm
17:18 5.3 °C 2.0 °C 1001.9 hPa West 3.2 km/h 6.9 km/h 76% 0.0 mm
17:23 5.2 °C 1.0 °C 1001.9 hPa Calm   10.1 km/h 76% 0.0 mm
17:28 5.1 °C 1.0 °C 1001.9 hPa West 5.0 km/h 10.1 km/h 76% 0.0 mm
17:33 5.0 °C 1.0 °C 1001.9 hPa Calm   9.0 km/h 76% 0.0 mm
17:38 4.8 °C 1.0 °C 1001.9 hPa Calm   9.0 km/h 77% 0.0 mm
17:43 4.6 °C 1.0 °C 1001.9 hPa West 4.7 km/h 6.4 km/h 77% 0.0 mm
17:48 4.4 °C 1.0 °C 1001.9 hPa West 2.1 km/h 5.8 km/h 77% 0.0 mm
17:53 4.3 °C 1.0 °C 1001.9 hPa West 4.0 km/h 6.1 km/h 78% 0.0 mm
17:58 4.2 °C 1.0 °C 1001.9 hPa West 4.0 km/h 6.1 km/h 78% 0.0 mm
18:03 4.1 °C 1.0 °C 1001.9 hPa WNW 6.4 km/h 7.9 km/h 79% 0.0 mm
18:08 4.0 °C 1.0 °C 1001.9 hPa West 4.7 km/h 9.0 km/h 79% 0.0 mm
18:13 3.9 °C 1.0 °C 1001.9 hPa WSW 7.6 km/h 9.0 km/h 80% 0.0 mm
18:18 3.8 °C 1.0 °C 1001.9 hPa WSW 4.3 km/h 10.1 km/h 80% 0.0 mm
18:24 3.8 °C 1.0 °C 1001.9 hPa WSW 5.5 km/h 10.1 km/h 81% 0.0 mm
18:29 3.7 °C 1.0 °C 1002.9 hPa West 9.7 km/h 11.9 km/h 81% 0.0 mm
18:34 3.9 °C 1.0 °C 1002.9 hPa West 1.8 km/h 11.9 km/h 82% 0.0 mm
18:39 4.1 °C 1.0 °C 1002.9 hPa WNW 4.7 km/h 11.6 km/h 82% 0.0 mm
18:44 4.3 °C 2.0 °C 1002.9 hPa NW 4.3 km/h 9.7 km/h 82% 0.0 mm
18:49 4.4 °C 2.0 °C 1002.9 hPa West 10.1 km/h 10.1 km/h 82% 0.0 mm
18:54 4.4 °C 2.0 °C 1002.9 hPa West 6.9 km/h 10.1 km/h 82% 0.0 mm
18:59 4.4 °C 2.0 °C 1002.9 hPa West 2.6 km/h 9.7 km/h 82% 0.0 mm
19:04 4.3 °C 2.0 °C 1002.9 hPa WSW 6.4 km/h 10.5 km/h 82% 0.0 mm
19:09 4.1 °C 1.0 °C 1002.9 hPa Calm   10.5 km/h 82% 0.0 mm
19:14 3.9 °C 1.0 °C 1002.9 hPa Calm   10.1 km/h 82% 0.0 mm
19:19 3.8 °C 1.0 °C 1002.9 hPa Calm   10.1 km/h 82% 0.0 mm
19:24 3.6 °C 1.0 °C 1002.9 hPa Calm   8.7 km/h 83% 0.0 mm
19:29 3.6 °C 1.0 °C 1002.9 hPa Calm   6.9 km/h 84% 0.0 mm
19:34 3.6 °C 1.0 °C 1002.9 hPa Calm   6.9 km/h 84% 0.0 mm
19:39 3.7 °C 2.0 °C 1002.9 hPa WSW 6.1 km/h 7.9 km/h 85% 0.0 mm
19:44 3.8 °C 2.0 °C 1002.9 hPa SW 6.4 km/h 7.9 km/h 85% 0.0 mm
19:49 4.0 °C 2.0 °C 1002.9 hPa WSW 7.6 km/h 10.5 km/h 85% 0.0 mm
19:54 4.1 °C 2.0 °C 1002.9 hPa SW 9.7 km/h 10.5 km/h 85% 0.0 mm
19:59 4.1 °C 2.0 °C 1002.9 hPa West 9.0 km/h 12.2 km/h 85% 0.0 mm
20:04 4.2 °C 2.0 °C 1002.9 hPa WSW 7.9 km/h 12.2 km/h 85% 0.0 mm
20:09 4.2 °C 2.0 °C 1002.9 hPa West 9.3 km/h 14.0 km/h 84% 0.0 mm
20:14 4.2 °C 2.0 °C 1002.9 hPa West 11.9 km/h 14.0 km/h 84% 0.0 mm
20:19 4.3 °C 2.0 °C 1002.9 hPa WSW 9.7 km/h 17.7 km/h 84% 0.3 mm
20:24 4.4 °C 2.0 °C 1002.9 hPa West 12.2 km/h 20.1 km/h 84% 0.3 mm
20:29 4.5 °C 2.0 °C 1002.9 hPa West 13.0 km/h 24.8 km/h 84% 0.3 mm
20:34 4.5 °C 2.0 °C 1002.9 hPa West 5.8 km/h 24.8 km/h 84% 0.3 mm
20:39 4.4 °C 2.0 °C 1002.9 hPa Calm   13.0 km/h 85% 0.3 mm
20:44 4.4 °C 2.0 °C 1002.9 hPa NW 2.6 km/h 9.0 km/h 85% 0.3 mm
20:49 4.4 °C 2.0 °C 1002.9 hPa West 5.8 km/h 10.1 km/h 85% 0.3 mm
20:54 4.5 °C 3.0 °C 1002.9 hPa WNW 11.9 km/h 12.6 km/h 85% 0.3 mm
20:59 4.6 °C 3.0 °C 1001.9 hPa NE 6.9 km/h 13.7 km/h 86% 0.3 mm
21:04 4.6 °C 3.0 °C 1001.9 hPa NNE 13.0 km/h 14.0 km/h 86% 0.3 mm
21:09 4.4 °C 3.0 °C 1001.9 hPa West 9.7 km/h 14.0 km/h 87% 0.3 mm
21:14 4.3 °C 3.0 °C 1002.9 hPa WNW 11.9 km/h 13.7 km/h 87% 0.3 mm
21:19 4.2 °C 3.0 °C 1002.9 hPa West 11.9 km/h 19.8 km/h 87% 0.0 mm
21:24 4.1 °C 2.0 °C 1002.9 hPa WNW 6.1 km/h 19.8 km/h 88% 0.0 mm
21:29 4.1 °C 3.0 °C 1002.9 hPa West 6.9 km/h 15.1 km/h 89% 0.0 mm
21:34 4.0 °C 3.0 °C 1002.9 hPa West 2.1 km/h 16.9 km/h 90% 0.0 mm
21:39 4.0 °C 3.0 °C 1002.9 hPa West 11.9 km/h 16.9 km/h 92% 0.0 mm
21:44 3.9 °C 3.0 °C 1002.9 hPa West 8.7 km/h 14.3 km/h 93% 0.0 mm
21:49 3.8 °C 3.0 °C 1002.9 hPa West 7.9 km/h 15.1 km/h 93% 0.0 mm
21:55 3.8 °C 3.0 °C 1002.9 hPa WSW 6.9 km/h 15.1 km/h 93% 0.0 mm
22:00 3.7 °C 3.0 °C 1002.9 hPa West 5.8 km/h 12.6 km/h 94% 0.0 mm
22:05 3.7 °C 3.0 °C 1002.9 hPa West 6.1 km/h 13.0 km/h 94% 0.0 mm
22:10 3.7 °C 3.0 °C 1002.9 hPa West 2.6 km/h 13.0 km/h 95% 0.0 mm
22:15 3.8 °C 3.0 °C 1002.9 hPa West 13.0 km/h 13.0 km/h 95% 0.0 mm
22:20 3.9 °C 4.0 °C 1002.9 hPa WSW 7.9 km/h 17.7 km/h 96% 0.0 mm
22:25 4.0 °C 4.0 °C 1002.9 hPa West 11.6 km/h 17.7 km/h 96% 0.0 mm
22:30 4.0 °C 4.0 °C 1002.9 hPa SSW 16.9 km/h 20.1 km/h 97% 0.0 mm
22:35 4.1 °C 4.0 °C 1002.9 hPa WSW 6.1 km/h 20.1 km/h 98% 0.0 mm
22:40 4.1 °C 4.0 °C 1002.9 hPa NW 9.3 km/h 18.0 km/h 98% 0.0 mm
22:45 4.1 °C 4.0 °C 1002.9 hPa West 13.7 km/h 15.1 km/h 98% 0.0 mm
22:50 4.1 °C 4.0 °C 1002.9 hPa WSW 5.8 km/h 14.0 km/h 98% 0.0 mm
22:55 4.2 °C 4.0 °C 1002.9 hPa NNW 16.3 km/h 16.3 km/h 98% 0.0 mm
23:00 4.2 °C 4.0 °C 1003.9 hPa West 6.9 km/h 16.3 km/h 98% 0.0 mm
23:05 4.1 °C 4.0 °C 1003.9 hPa WNW 16.3 km/h 19.5 km/h 98% 0.0 mm
23:10 4.0 °C 4.0 °C 1003.9 hPa NW 6.4 km/h 19.5 km/h 98% 0.3 mm
23:15 3.9 °C 4.0 °C 1002.9 hPa NW 12.2 km/h 17.7 km/h 98% 0.3 mm
23:20 3.8 °C 4.0 °C 1002.9 hPa West 10.5 km/h 17.7 km/h 98% 0.3 mm
23:25 3.8 °C 4.0 °C 1002.9 hPa WNW 6.4 km/h 15.8 km/h 98% 0.3 mm
23:30 3.7 °C 4.0 °C 1003.9 hPa WSW 5.5 km/h 17.2 km/h 98% 0.3 mm
23:35 3.7 °C 4.0 °C 1003.9 hPa WSW 6.9 km/h 17.2 km/h 98% 0.3 mm
23:40 3.6 °C 4.0 °C 1003.9 hPa WNW 17.7 km/h 17.7 km/h 98% 0.3 mm
23:45 3.5 °C 4.0 °C 1002.9 hPa NE 7.6 km/h 17.7 km/h 98% 0.8 mm
23:50 3.4 °C 3.0 °C 1002.9 hPa NNW 13.7 km/h 18.0 km/h 98% 0.8 mm
23:55 3.4 °C 3.0 °C 1002.9 hPa West 5.0 km/h 18.0 km/h 98% 1.0 mm
Données Historique de Météo Turbie

Mise a jour : 20/05/2018 16:00:13
Généré par Cumulus 1.9.4 (1099)